Погода в Ивановке

Украина / Харьковская область     49°00′20″N   36°51′38″E
темп.,
°C
ветер,
м/с
пор.,
м/с
влажн.,
%
обл.,
%
осадки,
мм/ч
давл.,
гПа
погр.,
м
27 октября, ср
ср2700:00+2ююз453917 0.0 103174
03:00+1ююз35475 0.0 103175
06:000ююз34585 0.0 103058
09:00+3ююз35460 0.0 1030194
12:00+9ююз46310 0.0 1028651
15:00+11юз45240 0.0 1025945
18:00+6юз33330 0.0 102520
21:00+5з33430 0.0 102524
28 октября, чт
чт2800:00+4зюз33545 0.0 102421
03:00+3з3360100 0.0 102530
06:00+3зюз2276100 0.0 102421
09:00+6зюз3474100 0.0 1024152
12:00+10зюз465868 0.0 1023475
15:00+13з574996 0.0 1021981
18:00+10юз3762100 0.0 1022225
21:00+10зюз4866100 0.0 1021259
29 октября, пт
пт2900:00+10зсз378097 0.0 1021269
03:00+7сз36955 0.0 1023107
06:00+6ссз339615 0.0 102449
09:00+8ссв368821 0.0 1026222
12:00+12св346766 0.0 1027883
15:00+13всв445390 0.0 10281345
18:00+11всв356273 0.0 1029157
21:00+10всв366894 0.0 1030179
30 октября, сб
сб3000:00+7в36830 0.0 1031107
03:00+5в34840 0.0 103250
06:00+4в34885 0.0 103343
09:00+7вюв367310 0.0 1034214
12:00+11вюв454942 0.0 1034797
15:00+13в454148 0.0 1032948
18:00+8в46561 0.0 103391
21:00+6вюв36620 0.0 103488
31 октября, вс
вс3100:00+5вюв35670 0.0 103474
03:00+4вюв33780 0.0 103338
05:00+4вюв34850 0.0 103359
08:00+6вюв47710 0.0 1033214
11:00+12вюв56510 0.0 1031688
14:00+13вюв56430 0.0 10291005
17:00+8в49590 0.0 1029152
20:00+7в49670 0.0 1029167